| time (UTC) | temp F | wind direction | speed MPH | gust MPH | rain 1hr in | rain 24hr in | rain mn in | humidity % | barometer mb |
| 20260509153044 | 67 | 304 | 0.0 | 1.0 | 0.00 | 0.00 | 0.00 | 11 | 1009.6 |
| 20260509151539 | 65 | 305 | 0.0 | 1.0 | 0.00 | 0.00 | 0.00 | 9 | 1009.5 |
| 20260509150014 | 64 | 310 | 0.0 | 2.0 | 0.00 | 0.00 | 0.00 | 13 | 1009.6 |
| 20260509144509 | 63 | 310 | 0.0 | 1.0 | 0.00 | 0.00 | 0.00 | 10 | 1009.6 |
| 20260509143047 | 63 | 310 | 0.0 | 1.0 | 0.00 | 0.00 | 0.00 | 11 | 1009.5 |
| 20260509141544 | 63 | 310 | 0.0 | 0.0 | 0.00 | 0.00 | 0.00 | 9 | 1009.4 |
| 20260509140021 | 63 | 310 | 0.0 | 1.0 | 0.00 | 0.00 | 0.00 | 9 | 1009.3 |
| 20260509134519 | 63 | 311 | 0.0 | 1.0 | 0.00 | 0.00 | 0.00 | 8 | 1009.3 |
| 20260509133105 | 62 | 311 | 1.0 | 2.0 | 0.00 | 0.00 | 0.00 | 7 | 1009.2 |
| 20260509131601 | 62 | 311 | 1.0 | 2.0 | 0.00 | 0.00 | 0.00 | 7 | 1009.2 |
| 20260509130100 | 62 | 314 | 1.0 | 2.0 | 0.00 | 0.00 | 0.00 | 7 | 1009.2 |
| 20260509124549 | 62 | 313 | 0.0 | 1.0 | 0.00 | 0.00 | 0.00 | 6 | 1009.2 |
| 20260509123049 | 62 | 301 | 0.0 | 2.0 | 0.00 | 0.00 | 0.00 | 6 | 1009.0 |
| 20260509121539 | 62 | 301 | 0.0 | 1.0 | 0.00 | 0.00 | 0.00 | 4 | 1009.0 |
| 20260509120036 | 62 | 301 | 0.0 | 1.0 | 0.00 | 0.00 | 0.00 | 4 | 1009.0 |
| 20260509114530 | 62 | 302 | 0.0 | 1.0 | 0.00 | 0.00 | 0.00 | 5 | 1009.2 |
| 20260509113010 | 62 | 302 | 1.0 | 3.0 | 0.00 | 0.00 | 0.00 | 4 | 1009.1 |
| 20260509111505 | 63 | 296 | 1.0 | 3.0 | 0.00 | 0.00 | 0.00 | 4 | 1009.1 |
| 20260509110041 | 62 | 295 | 0.0 | 2.0 | 0.00 | 0.00 | 0.00 | 4 | 1009.2 |
| 20260509104538 | 63 | 288 | 1.0 | 3.0 | 0.00 | 0.00 | 0.00 | 4 | 1009.2 |
| 20260509103018 | 63 | 297 | 1.0 | 3.0 | 0.00 | 0.00 | 0.00 | 3 | 1009.3 |
| 20260509101515 | 63 | 293 | 2.0 | 3.0 | 0.00 | 0.00 | 0.00 | 4 | 1009.4 |
| 20260509100109 | 63 | 295 | 2.0 | 3.0 | 0.00 | 0.00 | 0.00 | 3 | 1009.4 |
| 20260509094552 | 63 | 293 | 2.0 | 3.0 | 0.00 | 0.00 | 0.00 | 3 | 1009.4 |
| 20260509093048 | 63 | 293 | 2.0 | 3.0 | 0.00 | 0.00 | 0.00 | 3 | 1009.6 |
| 20260509091543 | 62 | 293 | 1.0 | 3.0 | 0.00 | 0.00 | 0.00 | 4 | 1009.7 |
| 20260509090038 | 62 | 293 | 2.0 | 4.0 | 0.00 | 0.00 | 0.00 | 3 | 1009.7 |
| 20260509084536 | 62 | 297 | 2.0 | 3.0 | 0.00 | 0.00 | 0.00 | 4 | 1009.9 |
| 20260509083035 | 62 | 298 | 1.0 | 3.0 | 0.00 | 0.00 | 0.00 | 4 | 1010.0 |
| 20260509081528 | 62 | 294 | 1.0 | 2.0 | 0.00 | 0.00 | 0.00 | 4 | 1010.1 |
| 20260509080032 | 62 | 288 | 1.0 | 2.0 | 0.00 | 0.00 | 0.00 | 4 | 1010.1 |
| 20260509074558 | 62 | 293 | 1.0 | 3.0 | 0.00 | 0.00 | 0.00 | 4 | 1010.3 |
| 20260509073054 | 62 | 294 | 0.0 | 1.0 | 0.00 | 0.00 | 0.00 | 3 | 1010.4 |
| 20260509071532 | 62 | 290 | 0.0 | 2.0 | 0.00 | 0.00 | 0.00 | 4 | 1010.4 |
| 20260509070028 | 62 | 289 | 0.0 | 3.0 | 0.00 | 0.00 | 0.00 | 5 | 1010.4 |
| 20260509064506 | 63 | 287 | 1.0 | 3.0 | 0.00 | 0.00 | 0.00 | 6 | 1010.5 |
| 20260509063001 | 63 | 293 | 1.0 | 3.0 | 0.00 | 0.00 | 0.00 | 7 | 1010.6 |
| 20260509061551 | 63 | 293 | 1.0 | 2.0 | 0.00 | 0.00 | 0.00 | 8 | 1010.7 |
| 20260509060059 | 63 | 281 | 1.0 | 3.0 | 0.00 | 0.00 | 0.00 | 8 | 1010.7 |
| 20260509054547 | 63 | 281 | 1.0 | 3.0 | 0.00 | 0.00 | 0.00 | 9 | 1010.8 |
| 20260509053039 | 63 | 291 | 1.0 | 3.0 | 0.00 | 0.00 | 0.00 | 9 | 1010.9 |
| 20260509051541 | 63 | 293 | 2.0 | 4.0 | 0.00 | 0.00 | 0.00 | 9 | 1010.9 |
| 20260509050055 | 63 | 285 | 1.0 | 5.0 | 0.00 | 0.00 | 0.00 | 9 | 1010.8 |
| 20260509044552 | 63 | 299 | 2.0 | 3.0 | 0.00 | 0.00 | 0.00 | 10 | 1010.9 |
| 20260509043037 | 63 | 289 | 2.0 | 3.0 | 0.00 | 0.00 | 0.00 | 10 | 1010.8 |
| 20260509041518 | 62 | 294 | 1.0 | 3.0 | 0.00 | 0.00 | 0.00 | 11 | 1010.7 |
| 20260509040017 | 62 | 289 | 1.0 | 3.0 | 0.00 | 0.00 | 0.00 | 11 | 1010.6 |
| 20260509034559 | 62 | 294 | 2.0 | 4.0 | 0.00 | 0.00 | 0.00 | 11 | 1010.5 |
| 20260509033100 | 62 | 293 | 2.0 | 3.0 | 0.00 | 0.00 | 0.00 | 13 | 1010.4 |
| 20260509033002 | 62 | 294 | 2.0 | 3.0 | 0.00 | 0.00 | 0.00 | 13 | 1010.4 |
| 20260509031546 | 62 | 290 | 2.0 | 4.0 | 0.00 | 0.00 | 0.00 | 13 | 1010.3 |
| 20260509030042 | 62 | 292 | 2.0 | 4.0 | 0.00 | 0.00 | 0.00 | 14 | 1010.2 |
| 20260509024520 | 61 | 295 | 2.0 | 4.0 | 0.00 | 0.00 | 0.00 | 17 | 1010.1 |
| 20260509023026 | 62 | 295 | 1.0 | 3.0 | 0.00 | 0.00 | 0.00 | 19 | 1010.0 |
| 20260509021502 | 63 | 298 | 1.0 | 2.0 | 0.00 | 0.00 | 0.00 | 18 | 1009.9 |
| 20260509014545 | 64 | 296 | 0.0 | 2.0 | 0.00 | 0.00 | 0.00 | 20 | 1009.7 |
| 20260509013043 | 65 | 293 | 1.0 | 3.0 | 0.00 | 0.00 | 0.00 | 20 | 1009.7 |
| 20260509011523 | 65 | 268 | 1.0 | 4.0 | 0.00 | 0.00 | 0.00 | 20 | 1009.8 |
| 20260509010022 | 66 | 287 | 2.0 | 5.0 | 0.00 | 0.00 | 0.00 | 20 | 1009.8 |
| 20260509004507 | 67 | 285 | 2.0 | 5.0 | 0.00 | 0.00 | 0.00 | 20 | 1009.8 |
| 20260509003003 | 67 | 290 | 1.0 | 3.0 | 0.00 | 0.00 | 0.00 | 24 | 1009.8 |
| 20260509001547 | 67 | 264 | 1.0 | 4.0 | 0.00 | 0.00 | 0.00 | 26 | 1009.8 |
| 20260509000047 | 67 | 236 | 2.0 | 6.0 | 0.00 | 0.00 | 0.00 | 26 | 1009.9 |
| 20260508234534 | 68 | 273 | 1.0 | 5.0 | 0.00 | 0.00 | 0.00 | 31 | 1009.9 |
| 20260508233025 | 68 | 276 | 3.0 | 8.0 | 0.00 | 0.00 | 0.00 | 29 | 1009.8 |
| 20260508231505 | 68 | 246 | 2.0 | 6.0 | 0.00 | 0.00 | 0.00 | 37 | 1010.0 |
| 20260508230004 | 69 | 254 | 2.0 | 5.0 | 0.00 | 0.00 | 0.00 | 30 | 1010.1 |
| 20260508224545 | 69 | 167 | 2.0 | 4.0 | 0.00 | 0.00 | 0.00 | 37 | 1010.1 |
| 20260508223042 | 69 | 229 | 2.0 | 6.0 | 0.00 | 0.00 | 0.00 | 40 | 1010.3 |
| 20260508221522 | 69 | 205 | 1.0 | 9.0 | 0.00 | 0.00 | 0.00 | 41 | 1010.4 |
| 20260508220019 | 69 | 200 | 2.0 | 8.0 | 0.00 | 0.00 | 0.00 | 43 | 1010.6 |
| 20260508214501 | 70 | 167 | 2.0 | 7.0 | 0.00 | 0.00 | 0.00 | 43 | 1010.6 |
| 20260508213059 | 71 | 209 | 3.0 | 9.0 | 0.00 | 0.00 | 0.00 | 45 | 1010.7 |
| 20260508211540 | 71 | 190 | 2.0 | 6.0 | 0.00 | 0.00 | 0.00 | 48 | 1010.8 |
| 20260508210037 | 72 | 153 | 3.0 | 6.0 | 0.00 | 0.00 | 0.00 | 48 | 1010.9 |
| 20260508204518 | 72 | 222 | 2.0 | 6.0 | 0.00 | 0.00 | 0.00 | 48 | 1011.0 |
| 20260508203017 | 72 | 250 | 1.0 | 6.0 | 0.00 | 0.00 | 0.00 | 47 | 1011.0 |
| 20260508201604 | 72 | 243 | 1.0 | 6.0 | 0.00 | 0.00 | 0.00 | 47 | 1011.2 |
| 20260508200055 | 73 | 169 | 2.0 | 8.0 | 0.00 | 0.00 | 0.00 | 45 | 1011.3 |
| 20260508194604 | 73 | 249 | 2.0 | 6.0 | 0.00 | 0.00 | 0.00 | 42 | 1011.4 |
| 20260508193033 | 73 | 188 | 2.0 | 9.0 | 0.00 | 0.00 | 0.00 | 40 | 1011.7 |
| 20260508191516 | 73 | 284 | 1.0 | 7.0 | 0.00 | 0.00 | 0.00 | 35 | 1011.9 |
| 20260508190012 | 73 | 290 | 1.0 | 4.0 | 0.00 | 0.00 | 0.00 | 40 | 1012.1 |
| 20260508184552 | 74 | 291 | 1.0 | 5.0 | 0.00 | 0.00 | 0.00 | 22 | 1012.2 |
| 20260508183049 | 73 | 271 | 0.0 | 3.0 | 0.00 | 0.00 | 0.00 | 24 | 1012.3 |
| 20260508181547 | 73 | 271 | 0.0 | 7.0 | 0.00 | 0.00 | 0.00 | 24 | 1012.3 |
| 20260508180029 | 73 | 293 | 1.0 | 3.0 | 0.00 | 0.00 | 0.00 | 20 | 1012.3 |
| 20260508174509 | 72 | 177 | 0.0 | 3.0 | 0.00 | 0.00 | 0.00 | 28 | 1012.3 |
| 20260508173006 | 71 | 280 | 0.0 | 3.0 | 0.00 | 0.00 | 0.00 | 25 | 1012.3 |
| 20260508171546 | 70 | 257 | 0.0 | 4.0 | 0.00 | 0.00 | 0.00 | 28 | 1012.3 |
| 20260508170044 | 69 | 314 | 0.0 | 5.0 | 0.00 | 0.00 | 0.00 | 27 | 1012.3 |
| 20260508164525 | 69 | 278 | 1.0 | 4.0 | 0.00 | 0.00 | 0.00 | 28 | 1012.4 |
| 20260508163022 | 68 | 307 | 2.0 | 5.0 | 0.00 | 0.00 | 0.00 | 29 | 1012.2 |
| 20260508161503 | 67 | 339 | 2.0 | 6.0 | 0.00 | 0.00 | 0.00 | 30 | 1012.3 |
| 20260508160059 | 66 | 274 | 2.0 | 5.0 | 0.00 | 0.00 | 0.00 | 30 | 1012.1 |
| 20260508154541 | 65 | 264 | 2.0 | 4.0 | 0.00 | 0.00 | 0.00 | 33 | 1012.1 |